www.pogodaiklimat.ru

Погода и климат >> Архив погоды >> Украина >> Харьков


АРХИВ ПОГОДЫ в Харькове

Время (UTC), дата Ветер
(напр.,м/с)
 
Видим.   Явления Облачность Т
(С)
Тd
(С)
f
(%)
Тe
(С)
Тes
(С)
Комфортность P
(гПа)
Po
(гПа)
Тmin
(С)
Tmax
(С)
R
(мм)
R24
(мм)
S
(см)
18 8.11 СЗ 2 3000 м дымка ясно +2.6 +1.6 93 -1 -1 по сезону 1025.7 1006.3 +8.2
21 8.11 З 2 600 м туман ясно +0.5 +0.5 100 -3 -3 по сезону 1025.7 1006.1
00 9.11 СЗ 2 <100 м туман ?/? -1.0 -1.0 100 -5 -5 по сезону 1025.6 1005.9
03 9.11 СЗ 2 <100 м туман ?/? -0.2 -0.2 100 -4 -4 по сезону 1025.3 1005.7
06 9.11 С 2 200 м туман ?/? -0.5 -0.5 100 -5 -5 по сезону 1026.2 1006.6 -2.8
09 9.11 С 1 800 м туман ?/? -0.1 -0.1 100 -2 -2 по сезону 1026.5 1006.9
12 9.11 С 1 1900 м дымка {туман} 10/10 120 м
[St]
+0.3 0.0 98 -2 -2 прохладно 1025.9 1006.3
15 9.11 штиль 0 1900 м дымка 10/10 120 м
[St]
+0.6 +0.3 98 -1 -1 по сезону 1025.9 1006.3
18 9.11 В 2 300 м туман ?/? +0.3 +0.3 100 -4 -4 по сезону 1025.7 1006.1 +0.6
21 9.11 В 2 300 м туман ?/? +0.1 +0.1 100 -4 -4 по сезону 1025.8 1006.2
00 10.11 ЮВ 1 400 м туман ?/? -0.2 -0.2 100 -3 -3 по сезону 1025.7 1006.1
03 10.11 ЮВ 2 300 м туман ?/? -0.6 -0.6 100 -5 -5 по сезону 1025.4 1005.8
06 10.11 В 2 600 м туман ?/? -0.4 -0.4 100 -4 -4 по сезону 1026.2 1006.6 -0.7
09 10.11 В 1 1300 м дымка {морось, туман} 10/10 90 м
[St]
-0.1 -0.4 98 -2 -2 по сезону 1026.3 1006.7
12 10.11 ЮВ 2 1900 м дымка {морось, туман} 10/10 90 м
[St]
0.0 -0.3 98 -4 -4 прохладно 1026.2 1006.6
15 10.11 СВ 3 1800 м дымка 10/10 90 м
[St]
-0.2 -0.5 98 -5 -5 прохладно 1026.7 1007.1
18 10.11 В 2 4500 м дымка 10/10 150 м
[St]
-0.1 -0.4 98 -4 -4 по сезону 1027.6 1008.0 +0.1 0.0
21 10.11 В 3 10 км {морось} 10/10 330 м
[St]
+0.9 +0.1 94 -4 -4 по сезону 1028.4 1008.8
00 11.11 В 2 10 км {морось} 10/10 330 м
[St]
+1.0 -0.1 92 -3 -3 по сезону 1029.2 1009.6
03 11.11 СВ 3 8000 м дымка 10/10 150 м
[St]
+1.0 +0.2 94 -4 -4 по сезону 1030.1 1010.5
06 11.11 В 9 10 км {морось} 10/10 360 м
[Sc]
+1.6 +0.2 90 -6 -6 по сезону 1032.6 1013.0 -0.1 0.0
09 11.11 В 7 10 км {дождь} 10/10 700 м
[Sc]
+1.1 -2.5 77 -6 -6 прохладно 1034.1 1014.4
12 11.11 В 6 10 км {дождь} 10/10 570 м
[Sc]
+0.8 -2.8 77 -5 -5 холодно 1035.4 1015.7
15 11.11 В 5 10 км 10/10 540 м
[Sc]
+1.1 -2.1 79 -5 -5 прохладно 1036.5 1016.8
18 11.11 В 8 10 км {дождь, морось} 10/10 330 м
[St]
-0.3 -2.4 86 -8 -8 холодно 1038.0 1018.1 +1.6 0.0
21 11.11 В 7 10 км в посл. час переохл. осадки {морось} 10/10 540 м
[Sc]
-1.9 -4.7 81 -9 -9 холодно 1039.3 1019.3
00 12.11 В 8 10 км {морось} 10/10 500 м
[Sc]
-2.8 -6.2 77 -11 -11 холодно 1040.0 1019.9
03 12.11 В 7 10 км 10/10 660 м
[Sc]
-3.2 -7.1 74 -11 -11 холодно 1040.7 1020.6
06 12.11 СВ 5 10 км 9/8 1440 м
[Sc Ac trans]
-5.1 -8.4 78 -12 -12 очень
холодно
1041.9 1021.6 -5.4 0.0
09 12.11 СВ 6 10 км 9/9 700 м
[Sc]
-2.8 -8.6 64 -10 -10 очень
холодно
1041.5 1021.4
12 12.11 В 6 10 км ясно -0.5 -8.2 56 -7 -6 холодно 1040.7 1020.8
15 12.11 В 5 10 км 9/9 840 м
[Sc]
-1.6 -7.3 65 -8 -8 холодно 1041.5 1021.5
18 12.11 В 6 10 км ясно -4.0 -11.4 56 -11 -11 очень
холодно
1042.6 1022.4 -0.3
21 12.11 СВ 4 10 км ясно -6.0 -12.9 58 -12 -12 очень
холодно
1043.1 1022.7
00 13.11 СВ 5 10 км ясно -7.1 -13.0 63 -14 -14 очень
холодно
1042.6 1022.1
03 13.11 СВ 4 10 км ясно -8.0 -12.7 69 -15 -15 очень
холодно
1042.4 1021.9
06 13.11 СВ 3 10 км ясно -7.5 -13.0 65 -13 -13 очень
холодно
1042.2 1021.7 -8.3
09 13.11 СВ 4 10 км ясно -4.1 -12.1 54 -10 -8 очень
холодно
1041.2 1021.0
12 13.11 СВ 4 10 км 3/0
[Ac trans]
-1.5 -10.8 49 -7 -6 холодно 1039.8 1019.8
15 13.11 В 3 10 км 6/6 600 м
[Sc]
-2.7 -8.9 62 -7 -7 холодно 1039.4 1019.3
18 13.11 В 3 10 км 9/9 700 м
[Sc]
-2.9 -11.1 53 -7 -7 прохладно 1038.5 1018.4 -1.5
21 13.11 В 4 10 км 10/10 750 м
[Sc]
-1.4 -11.6 46 -6 -6 прохладно 1037.4 1017.5
00 14.11 В 4 10 км 10/10 500 м
[Sc]
-1.2 -10.7 48 -6 -6 по сезону 1035.6 1015.7
03 14.11 В 5 10 км 10/10 420 м
[Sc]
-1.6 -11.4 47 -7 -7 прохладно 1034.4 1014.5
06 14.11 В 5 10 км 10/10 660 м
[Sc]
-1.7 -12.1 45 -7 -7 по сезону 1033.6 1013.7 -2.9
09 14.11 В 5 10 км 8/4 1000 м
[Sc Ci fib]
+1.4 -11.5 38 -3 -3 по сезону 1031.6 1012.0
12 14.11 В 5 10 км 5/0
[Ci fib]
+3.8 -12.0 30 -0 0 по сезону 1029.4 1010.0
15 14.11 В 5 10 км 3/0
[Ci fib]
-0.9 -10.6 48 -6 -6 прохладно 1029.6 1009.8
18 14.11 В 5 10 км 8/8 1110 м
[Sc]
-1.0 -8.9 55 -7 -7 прохладно 1029.7 1009.9 +4.2
21 14.11 В 3 10 км 4/0
[Ac trans]
-3.6 -7.6 74 -9 -9 холодно 1029.4 1009.5
00 15.11 В 6 10 км 9/0
[Ac trans]
-1.9 -7.7 64 -9 -9 прохладно 1028.7 1008.9
03 15.11 В 5 10 км 9/6 480 м
[St Ac trans]
-1.3 -8.1 60 -7 -7 по сезону 1029.5 1009.7
06 15.11 В 6 10 км 9/0
[Ac trans]
-0.7 -9.3 52 -7 -7 по сезону 1030.4 1010.6 -3.6
09 15.11 В 5 10 км 9/0
[Ac trans]
+1.8 -13.1 32 -3 -2 по сезону 1031.2 1011.6
12 15.11 В 6 10 км 3/0
[Ac trans]
+3.9 -14.3 25 -0 0 по сезону 1031.5 1012.0

 

Местоположение метеостанции Харьков (Харьковская область, Украина): широта 49.97 долгота 36.13 высота над уровнем моря 155 м.

В архиве по умолчанию представлена погода в Харькове за последнюю неделю. Архивные данные за месяц целиком и за предыдущие месяцы, начиная с января 2011 года, Вы можете получить, выбрав интересующий диапазон дат из раскрывающегося списка и нажав кнопку "Ввод!".


*Определитесь, кто Вы:
робот инопланетянин человек

Внимание! Время в таблицах - всемирное. Для получения местного времени необходимо прибавить поправку, которая в Харькове равна 2 ч.

Смотрите также архив погоды в соседних городах и на ближайших метеорологических станциях:

Погода в Золочеве (Львовская область, Украина) (39 км)
Погода в Боходухове (Харьковская область, Украина) (50 км)
Погода в Слобожанском (Донецкая область, Украина) (50 км)
Погода в Коломаке (Харьковская область, Украина) (66 км)
Погода в Белгороде (Белгородская область, Россия) (80 км)
Погода в Краснограде (Харьковская область, Украина) (82 км)
Погода в Великом Бурлуке (Харьковская область, Украина) (90 км)
Погода в Готне (Белгородская область, Россия) (96 км)
Погода в Купянске (Харьковская область, Украина) (119 км)
Погода в Лозовой (Харьковская область, Украина) (120 км)

Пояснения к столбцам:

Ветер - указаны скорость ветра в м/с - средняя за 10 мин, порывы в срок и между сроками (в фигурных скобках) и направление, откуда дует ветер: С - северный, СВ - северо-восточный, В - восточный, ЮВ - юго-восточный, Ю - южный, ЮЗ - юго-западный, З - западный, СЗ - северо-западный.
Видимость - горизонтальная дальность видимости в метрах или километрах. При видимости от 1 до 10 км при отсутствии осадков обычно наблюдается дымка, при ухудшении видимости до 1 км и менее - туман. В сухую погоду видимость может ухудшаться дымом, пылью или мглою.
Явления - указаны атмосферные явления, наблюдавшиеся в срок или в последний час перед сроком; фигурными скобками обозначены явления, наблюдавшиеся между сроками (за 1-3 часа до срока); квадратными скобками обозначены град или гололедные отложения с указанием их диаметра в мм.
Облачность - указаны через наклонную черту общая и нижняя облачность в баллах и высота нижней границы облаков в метрах; квадратными скобками обозначены формы облаков: Ci - перистые, Cs - перисто-слоистые, Cc - перисто-кучевые, Ac - высококучевые, As - высокослоистые, Sc - слоисто-кучевые, Ns - слоисто-дождевые, Cu - кучевые, Cb - кучево-дождевые. Подробнее классификацию облаков см. в Атласе облаков (PDF).
T - Температура воздуха - температура, измеренная на высоте 2 м над землей.
Td - Температура точки росы - температура, при понижении до которой содержащийся в воздухе водяной пар достигнет насыщения.
f - Относительная влажность воздуха - влажноcть воздуха, измеренная на высоте 2 м над землей.
Te - Эффективная температура - температура, которую ощущает одетый по сезону человек в тени. Характеристика душности погоды. При расчете учитывается влияние влажности воздуха и скорости ветра на теплоощущения человека.
Tes - Эффективная температура на солнце - температура, которую ощущает человек, с поправкой на солнечный нагрев. Характеристика знойности погоды. Зависит от высоты солнца над горизонтом, облачности и скорости ветра. Ночью, в пасмурную погоду, а также при ветре 12 м/с и более поправка равна нулю.
P - Атмосферное давление - приведенное к уровню моря атмосферное давление.
Po - Атмосферное давление - измеренное на уровне метеостанции атмосферное давление.
Tmin - Минимальная температура - минимум температуры воздуха на высоте 2 м над землей.
Tmax - Максимальная температура - максимум температуры воздуха на высоте 2 м над землей.
R - Количество осадков - Количество выпавших осадков за период времени, мм. При наведении курсора мыши на число - период времени, за который выпало указанное количество осадков.
R24 - Количество осадков - Количество выпавших осадков за 24 часа, мм.
S - Снежный покров - Высота снежного покрова, см. При наведении курсора мыши на число - состояние снежного покрова и степень покрытия местности в баллах.